Terminal Aerodrome Forecast
Issued by NWS

Home | Current Version | Previous Version | Text Only | Print | Product List | Glossary On
Versions: 1 2 3 4 5 6 7 8 9 10 11 12 13 14 15 16 17 18 19
558
FTUS42 KKEY 211120
TAFMTH
TAF
KMTH 211120Z 2112/2212 08006KT P6SM SCT050 BKN250
     FM211700 09010G15KT P6SM FEW023 BKN250
     FM220400 13012G17KT P6SM VCSH SCT023 SCT035 BKN250=

USA.gov is the U.S. government's official web portal to all federal, state and local government web resources and services.